Theta_e
275 275 275 274 274 274 273 273 273 273 274 274 274 274 274 274 274 273 273 273 272 272 272 272 272 273 273 274 275 276 277 278 279 279 281 283 286 290 292 292 293 293 293 293 294 295 296 299 302 302 301 304 308 310 311 311 312 314 315 314 314 314 314 314 314 310 308 310 311 311 313 314 314 315 315 315 316 317 317 316 316 316 316 317 318
275 274 274 274 273 273 273 272 273 273 273 273 274 274 274 273 273 273 272 272 272 272 272 272 272 272 273 274 275 275 276 277 278 279 281 283 287 290 291 292 292 292 292 293 293 294 295 297 301 303 302 303 307 310 310 311 311 312 313 314 314 314 314 313 311 309 307 306 308 309 311 313 313 313 315 315 315 316 316 316 315 316 318 318 319
274 274 273 273 273 272 272 272 272 272 273 273 273 273 273 273 273 272 272 272 272 271 271 271 272 272 272 273 274 274 275 277 278 279 280 282 285 289 291 291 292 291 292 292 292 293 294 295 298 302 303 304 307 309 310 310 311 312 313 314 313 313 314 313 310 309 306 304 305 307 308 310 312 313 315 315 315 315 315 316 317 317 318 318 318
273 273 273 272 272 272 271 272 272 272 272 272 273 273 273 273 272 272 272 271 271 271 271 271 272 272 273 273 274 275 276 277 278 279 279 280 282 286 290 291 291 291 291 291 291 292 293 294 296 299 303 304 306 309 310 310 311 311 311 313 313 312 313 312 310 308 306 303 304 306 307 309 310 311 313 313 314 315 316 316 317 317 318 318 317
273 272 272 272 271 271 271 271 271 272 272 272 273 273 272 272 272 271 271 271 271 271 271 271 272 273 273 274 275 275 276 276 277 278 278 279 279 282 286 290 291 291 291 291 291 291 292 293 294 297 301 304 307 309 309 310 310 311 311 311 311 311 311 311 309 308 306 304 302 304 306 307 308 309 311 311 310 312 314 316 317 317 317 318 318
272 272 271 271 271 270 270 271 271 271 271 272 272 272 272 272 271 271 270 270 270 270 271 271 271 271 272 273 273 273 274 274 275 276 277 278 279 280 283 287 290 291 291 291 291 290 291 292 294 296 299 302 307 309 309 309 310 310 310 310 310 310 310 309 308 307 306 304 303 303 304 305 305 306 309 311 310 308 309 311 315 317 317 317 318
271 271 270 270 270 270 270 270 271 271 271 271 271 271 271 271 271 270 269 269 270 270 270 270 271 271 271 271 272 272 273 274 274 275 276 277 278 279 281 284 288 290 290 290 290 290 291 291 292 295 297 301 305 309 309 309 310 309 310 310 309 309 308 307 307 306 305 303 303 303 302 303 304 304 307 310 310 309 308 306 308 312 315 317 316
270 270 269 269 269 269 269 270 270 270 270 271 271 270 270 270 269 269 269 269 269 269 270 270 270 270 271 271 272 272 273 274 274 275 276 277 278 280 281 284 288 290 290 290 290 290 290 290 291 293 296 298 303 309 309 308 309 309 309 309 309 308 307 306 305 305 303 302 302 303 302 302 302 303 304 306 306 306 308 308 306 306 309 313 312
269 269 268 268 268 268 269 269 270 270 270 270 270 269 269 269 268 268 268 268 268 269 269 269 270 270 270 271 271 272 273 274 275 276 277 278 279 280 282 284 287 289 289 290 290 290 290 290 290 291 294 296 300 306 310 309 309 309 308 308 308 307 306 305 304 304 303 302 302 302 302 301 300 300 301 304 305 305 307 309 307 304 305 306 307
268 268 268 268 268 268 268 269 269 269 269 269 269 268 268 268 267 267 267 268 268 268 269 269 269 270 270 270 271 272 273 275 276 277 278 279 280 281 282 283 285 287 288 289 289 290 290 290 290 291 292 295 298 303 308 310 309 309 309 308 307 307 305 304 304 303 302 302 301 301 301 300 300 301 302 305 307 307 307 307 305 303 303 303 303
267 267 267 267 267 268 268 269 269 268 268 267 267 267 267 266 266 267 267 267 268 268 269 269 269 270 270 270 271 271 272 273 275 276 278 279 280 281 282 283 284 286 288 289 289 290 290 290 290 290 292 294 297 301 307 310 310 309 309 309 308 307 306 305 304 303 303 302 301 301 302 301 301 303 305 305 306 306 306 307 304 302 302 302 302
267 266 266 267 267 268 268 268 267 267 267 266 266 266 266 266 266 266 267 267 267 268 268 269 269 270 270 270 271 271 272 273 274 276 278 279 281 282 283 283 284 285 287 289 290 290 290 290 290 290 291 293 296 300 305 309 310 310 309 309 309 308 308 307 305 304 303 303 302 302 303 302 302 304 305 305 305 306 306 306 305 303 303 303 302
266 266 266 266 267 267 267 267 266 266 265 265 265 265 265 265 265 266 266 267 267 268 268 269 269 270 270 270 270 271 272 273 274 276 278 280 281 282 283 284 284 285 286 288 290 290 290 290 290 290 291 292 296 301 305 308 310 310 309 308 308 308 309 308 308 306 305 304 302 302 304 303 303 304 306 306 305 304 304 304 304 304 304 304 303
265 265 266 266 266 266 266 265 265 265 264 265 264 264 265 265 265 266 266 267 268 268 269 269 269 270 270 270 271 271 272 273 274 276 278 280 281 282 283 284 285 285 286 287 289 290 290 290 290 290 291 291 295 300 305 307 308 308 307 307 307 307 307 307 308 308 307 305 304 303 304 305 305 305 306 306 306 305 304 304 304 304 304 304 303
265 265 266 266 265 265 264 264 264 264 264 264 264 264 265 265 265 266 266 267 268 268 269 269 270 270 270 270 271 271 272 273 274 276 278 280 281 282 283 284 284 285 286 287 289 290 290 290 290 290 291 291 294 300 305 306 306 306 306 305 306 306 306 307 307 307 307 307 306 305 305 305 306 306 305 306 307 307 305 305 304 303 302 303 302
265 265 265 265 264 263 263 263 263 263 263 264 264 264 265 265 266 266 267 268 269 269 269 270 270 270 270 271 271 272 273 274 275 276 278 279 281 283 283 283 284 285 286 288 289 290 290 291 291 291 290 291 293 299 304 306 305 305 305 305 305 305 305 306 307 308 308 308 307 307 307 306 306 307 307 306 306 305 304 303 303 302 302 301 300
264 264 263 263 263 262 262 262 262 263 263 264 264 265 265 266 267 268 268 269 269 270 270 270 270 271 271 271 272 272 273 274 275 276 278 279 281 282 283 283 284 285 287 289 290 290 291 291 291 290 290 291 293 298 304 305 305 304 304 304 304 304 304 305 306 306 308 308 308 308 308 307 307 307 308 307 305 304 304 302 301 302 302 301 298
263 263 262 262 261 261 261 262 262 263 263 264 265 265 266 267 268 268 268 269 270 270 270 271 271 271 271 272 272 272 273 273 274 276 278 279 281 282 282 283 284 285 287 290 291 291 291 291 291 290 290 291 293 298 303 305 304 303 303 303 303 303 303 304 304 304 305 307 307 308 307 307 306 306 306 306 305 305 305 303 302 302 303 302 299
262 261 261 261 260 261 261 262 262 263 264 265 265 266 267 267 267 268 268 269 269 270 271 271 272 272 272 272 273 273 274 274 275 276 278 280 282 283 283 284 285 286 287 289 290 290 291 290 290 290 290 291 292 297 302 304 303 303 303 302 302 302 303 303 303 302 303 303 304 304 305 305 305 304 303 303 304 305 307 305 303 303 303 302 299
261 260 260 260 260 261 261 262 263 263 264 265 266 266 266 266 267 267 267 268 269 270 271 272 273 273 273 273 273 274 274 274 275 277 278 280 282 283 284 285 286 286 287 288 289 290 290 290 290 290 291 291 292 296 301 304 303 303 303 302 302 302 303 303 302 302 302 302 302 302 302 302 302 302 302 302 303 305 306 306 305 305 305 301 298
260 259 259 259 260 261 261 262 263 264 265 265 265 266 266 266 266 266 267 268 269 270 272 273 274 275 275 275 275 274 275 275 275 277 279 281 283 284 284 285 286 287 288 288 289 289 290 290 290 291 292 293 294 297 301 304 303 303 303 304 303 303 303 302 301 301 301 301 300 300 300 300 300 300 300 300 301 302 303 305 306 307 306 303 299
259 258 259 259 260 261 262 262 263 264 265 265 265 265 265 265 265 266 266 268 269 271 272 273 274 276 276 277 276 276 276 277 277 278 280 282 284 285 285 286 287 288 289 289 289 290 290 291 291 292 293 294 296 298 301 303 303 303 304 304 304 303 303 301 301 301 300 299 299 299 298 298 298 298 299 299 300 301 302 303 304 305 306 306 304
258 258 258 259 260 261 262 263 264 264 264 264 264 264 264 264 265 265 266 267 269 271 271 272 274 275 277 279 279 279 279 278 279 280 282 283 285 286 287 287 288 288 289 290 290 291 291 291 292 292 293 295 298 300 302 303 303 303 303 304 304 303 302 301 300 300 299 298 298 298 298 297 297 297 298 298 299 300 301 302 303 304 305 306 307
257 257 258 259 260 261 262 263 264 264 264 264 264 264 264 264 264 265 266 267 268 269 270 272 273 274 276 279 280 281 282 282 282 283 284 285 286 287 288 289 289 289 290 290 291 291 291 292 292 292 293 296 299 301 302 303 303 303 303 303 303 303 301 300 299 299 298 298 298 298 297 298 298 297 298 298 299 300 300 301 302 303 303 304 306
257 257 258 259 260 261 262 263 263 263 263 263 263 263 263 264 264 265 266 267 268 269 270 272 273 274 275 277 279 280 282 284 285 286 286 286 287 288 288 289 290 290 291 291 291 291 291 292 292 292 293 296 299 302 302 302 302 303 303 303 302 301 300 299 299 299 298 298 298 298 298 298 298 298 298 298 298 298 299 299 300 301 301 302 302
257 257 258 259 260 261 262 263 263 263 263 263 263 263 263 263 264 265 265 266 267 268 270 272 272 273 275 276 277 278 279 282 285 287 288 288 288 288 288 289 289 290 290 291 291 291 291 291 292 292 293 295 299 301 301 302 302 302 302 302 301 300 300 299 299 299 299 299 299 299 298 298 298 298 297 297 297 297 298 298 298 298 298 298 298
256 257 258 259 260 261 262 262 262 262 262 262 263 263 263 263 264 265 265 266 267 268 270 271 272 273 274 275 275 276 277 280 283 285 286 287 288 289 289 289 289 290 290 290 291 291 291 291 291 292 292 295 299 301 301 301 301 301 301 301 300 300 300 300 300 300 300 299 299 298 298 297 296 296 296 296 297 297 297 297 296 296 296 296 296
256 257 258 259 260 261 262 262 262 262 262 262 262 262 262 263 264 265 265 266 268 269 270 271 271 273 274 273 273 274 276 278 280 281 282 284 287 289 291 291 291 291 291 291 291 291 291 291 292 292 292 295 299 300 300 300 300 300 300 300 300 300 300 300 300 300 300 300 299 297 296 295 295 295 295 296 296 296 296 296 296 295 295 295 295
256 257 258 259 260 261 261 261 261 261 261 262 262 261 262 263 264 265 266 267 268 269 270 270 271 273 273 272 272 273 274 276 277 279 281 283 285 288 291 292 292 292 292 292 292 292 292 292 292 293 294 296 298 299 299 300 299 299 299 299 299 299 299 299 299 299 299 299 298 296 295 295 295 295 295 295 295 295 295 295 295 294 294 294 294
256 257 258 259 260 261 260 260 261 261 261 261 261 261 261 262 263 265 266 266 268 269 269 270 271 272 272 271 272 272 274 275 276 278 280 281 283 287 290 292 292 292 292 293 293 293 293 293 293 294 296 297 298 299 299 299 299 299 299 299 299 299 298 298 299 299 299 298 297 296 295 294 294 294 294 294 294 294 294 294 294 294 293 293 294
256 257 258 258 260 260 260 260 260 260 261 261 260 260 261 261 262 263 264 265 266 267 267 268 270 271 271 271 271 271 273 274 275 276 278 279 282 286 289 291 292 292 293 294 294 293 294 294 295 296 297 298 298 299 299 299 299 299 298 298 298 298 298 298 299 299 298 298 297 296 295 295 294 294 294 294 294 293 293 293 293 294 293 293 294
256 257 257 258 259 259 259 259 259 260 260 260 260 260 260 260 261 262 263 263 265 265 266 266 268 270 270 270 270 270 271 272 274 274 275 277 281 286 290 292 292 293 293 294 294 294 295 295 296 297 298 298 299 299 299 299 299 299 298 298 298 298 298 298 298 299 298 298 297 296 295 295 295 294 294 294 293 293 292 292 293 293 293 293 293
256 257 257 258 259 259 258 259 259 259 260 260 259 259 260 259 260 260 261 261 263 264 264 264 266 268 268 268 269 269 270 271 272 272 273 275 278 285 291 293 293 295 295 295 295 295 295 296 297 298 298 299 299 299 299 299 299 299 298 298 298 298 298 298 298 298 298 298 297 296 295 295 294 294 294 294 293 293 292 292 292 292 292 292 293
257 257 258 258 259 258 258 258 258 259 259 259 259 259 259 259 259 259 259 260 261 262 262 262 263 266 267 267 267 268 268 269 270 270 271 272 274 281 287 289 289 291 293 293 295 296 297 297 297 298 298 299 299 299 299 298 299 298 298 298 298 298 298 298 298 298 298 297 297 296 295 295 294 294 294 293 293 293 293 292 292 292 292 292 292
257 258 258 259 258 258 258 257 258 258 259 259 259 259 258 258 259 259 259 259 259 259 259 259 261 264 266 265 265 266 267 267 268 268 269 269 270 274 278 277 277 278 280 281 285 290 295 297 298 298 298 299 299 299 299 298 298 298 298 298 298 298 297 297 297 297 297 297 297 296 295 295 294 294 294 294 293 293 293 293 292 292 292 292 292
257 258 258 259 258 258 258 257 257 258 259 259 258 258 258 258 258 258 258 258 259 258 258 258 259 262 264 264 263 263 264 265 266 266 267 267 267 268 269 268 269 271 272 273 274 278 281 286 292 297 299 299 298 298 299 298 298 298 298 298 298 297 297 297 297 297 297 297 297 296 295 295 294 294 294 294 294 294 293 293 293 293 292 292 292
257 257 258 258 258 258 257 257 257 258 258 258 258 258 258 257 258 258 257 258 258 258 258 258 258 260 262 263 262 261 261 262 263 263 263 264 264 264 265 265 266 267 268 270 271 272 272 274 279 285 292 297 298 298 298 298 298 297 298 298 298 297 297 297 297 297 297 297 297 296 295 295 295 294 294 294 294 294 294 293 293 293 293 292 292
258 257 258 258 258 257 257 257 257 257 257 258 257 258 258 257 257 257 257 257 258 257 257 257 258 258 261 263 262 260 259 260 260 260 260 261 261 262 263 263 264 264 265 267 269 270 270 271 272 274 280 287 293 297 298 298 297 297 297 297 297 297 297 297 297 297 296 296 296 296 295 295 295 294 295 294 294 294 294 293 293 293 292 292 292
259 258 258 258 258 257 257 257 256 256 257 257 257 257 257 257 257 257 256 257 257 257 257 257 257 257 260 263 262 259 258 258 258 258 258 259 260 261 261 261 262 262 263 265 267 269 269 270 270 271 273 277 282 288 293 296 297 297 297 297 297 297 297 296 296 296 296 296 296 296 295 295 295 294 295 295 294 294 294 293 293 293 292 292 292
259 259 258 257 257 257 256 256 256 256 256 256 257 257 257 256 256 256 256 256 256 256 256 256 256 257 259 263 262 259 257 256 256 257 257 258 259 259 260 260 261 262 261 262 264 267 269 269 269 270 271 272 274 278 284 290 294 296 297 296 296 296 296 296 296 296 296 296 296 296 295 295 295 294 294 294 294 294 294 294 293 293 293 293 292
259 259 258 257 257 257 256 256 256 256 256 256 256 256 256 256 256 256 256 256 256 256 256 256 256 256 258 262 262 259 256 256 256 256 256 257 257 258 259 259 260 261 262 262 262 265 267 268 269 269 269 270 271 273 276 280 285 290 293 295 296 296 295 295 295 295 295 296 296 295 295 295 294 294 294 294 294 294 294 294 293 293 293 293 292
259 259 258 258 258 257 256 256 256 256 256 256 256 256 256 255 255 255 255 255 255 255 255 255 255 256 257 259 260 258 256 255 255 255 256 256 256 257 259 259 260 260 261 262 262 263 266 267 268 268 269 269 270 270 271 273 276 280 284 288 291 293 294 295 295 295 295 295 295 295 295 295 294 294 294 294 294 294 293 293 293 293 293 293 292
260 259 258 258 257 256 255 255 255 255 255 255 255 255 255 255 255 255 255 255 255 254 254 254 255 255 256 257 257 256 256 255 255 255 255 255 255 256 257 259 259 260 261 261 262 263 265 266 267 268 268 269 269 269 270 270 272 273 276 279 283 286 288 291 292 294 294 294 294 295 295 294 294 294 294 294 293 293 293 293 293 292 292 292 292
260 259 259 258 257 256 256 255 255 255 255 255 255 255 255 255 255 255 255 254 254 254 254 254 254 254 255 255 255 255 255 255 254 255 255 255 255 256 256 257 258 259 260 261 261 262 264 265 266 267 267 268 269 269 269 270 270 271 272 274 276 279 281 284 287 290 292 293 294 294 294 294 293 293 293 293 293 293 292 292 292 292 292 292 292
260 260 259 259 258 257 256 256 255 255 255 255 255 255 254 254 254 254 254 254 254 253 253 253 253 253 254 254 254 254 254 254 254 254 254 255 255 256 257 258 258 259 260 260 261 262 263 264 265 266 266 267 268 268 269 269 269 270 271 272 273 275 277 279 282 286 290 292 293 293 293 293 293 293 293 292 292 292 292 292 292 292 292 292 292
260 260 259 259 258 257 256 256 256 255 255 254 254 254 254 254 254 254 254 254 253 253 253 253 253 253 253 253 253 254 254 254 254 254 254 255 256 256 257 258 259 260 260 260 261 262 262 263 264 265 266 266 267 268 268 269 269 270 270 271 272 274 275 278 281 285 288 291 292 293 293 293 293 293 293 292 292 292 292 292 292 292 292 292 292
260 259 259 259 258 257 256 256 256 255 255 254 253 253 253 253 253 253 253 253 253 253 253 253 253 253 253 253 253 254 254 254 254 254 254 255 256 257 258 259 260 261 261 261 261 262 262 263 264 265 265 266 266 267 268 268 269 269 270 270 271 273 275 278 281 284 286 289 291 292 293 292 292 292 292 292 292 292 292 292 292 292 292 292 292
259 259 259 259 258 257 257 256 256 255 254 254 253 253 253 253 253 253 253 253 253 253 253 253 253 253 253 254 254 254 254 255 255 255 256 256 257 258 259 260 260 261 261 262 262 262 263 263 264 264 265 265 266 266 267 268 268 269 269 270 271 273 275 277 279 281 283 286 288 289 290 290 291 291 291 292 292 292 292 292 292 292 292 292 292
259 259 259 258 258 257 257 256 256 255 254 254 253 253 253 252 253 253 253 253 253 253 253 253 253 253 253 254 254 255 255 255 256 256 256 257 258 258 259 260 261 261 262 262 262 262 263 263 264 264 264 265 265 266 267 267 268 268 269 269 271 273 276 277 277 279 281 283 284 285 286 286 286 287 288 289 290 290 290 290 291 291 291 291 291
259 259 259 258 258 257 257 257 256 256 255 254 254 253 253 252 252 252 252 252 252 253 253 253 253 253 254 254 254 254 255 255 255 256 257 257 258 259 259 260 261 262 262 262 262 262 263 263 264 264 264 264 265 265 266 267 267 268 268 269 271 273 275 276 276 277 278 279 280 281 281 282 282 282 283 284 285 286 286 287 287 288 288 288 288
259 259 258 258 257 257 257 257 257 257 256 255 254 254 253 253 252 252 252 252 252 252 253 253 253 254 254 254 254 255 255 255 255 256 257 258 258 259 259 260 261 262 262 262 262 262 263 263 264 264 264 264 265 265 265 266 267 268 269 269 270 271 273 274 275 275 276 277 277 278 278 278 278 278 278 279 280 281 281 282 283 283 284 284 284
Wind_Speed
31 32 33 34 36 37 39 41 42 42 43 43 43 44 44 42 41 42 43 42 41 39 38 37 36 37 38 38 37 35 35 36 37 34 31 31 31 30 28 28 26 22 20 19 18 18 21 25 27 28 29 31 30 35 36 33 35 37 38 37 33 33 31 22 13 10 13 25 34 38 45 47 44 46 48 49 53 55 52 53 54 54 55 53 53
32 33 34 35 36 38 40 41 42 42 43 42 42 42 42 40 40 41 42 41 40 39 38 38 36 35 36 37 36 34 33 36 36 33 29 28 30 30 28 26 25 22 19 18 18 18 19 23 26 27 27 31 31 35 40 36 36 36 36 35 32 33 34 27 18 12 10 20 32 36 43 48 45 46 50 51 52 52 49 51 53 55 55 53 52
32 33 34 35 37 38 40 41 41 43 43 41 42 42 40 39 38 39 40 40 39 38 37 37 36 35 35 36 36 35 35 36 35 31 27 26 29 29 28 26 24 22 19 19 18 18 19 21 24 26 25 28 33 35 42 40 38 38 38 38 35 33 34 33 27 18 11 17 29 35 38 42 44 48 53 55 54 51 48 51 54 54 54 53 53
32 33 34 36 38 38 40 41 41 42 41 40 41 40 39 37 36 38 39 38 38 37 35 33 32 32 33 33 33 32 32 32 32 31 28 26 28 29 27 25 24 22 20 19 19 18 19 20 23 25 24 26 32 35 40 41 40 39 38 38 37 33 33 35 36 31 21 16 24 36 40 39 40 46 50 50 51 52 51 51 53 54 54 54 54
32 33 35 37 38 38 40 41 41 41 40 40 41 40 38 37 35 36 37 37 36 35 33 30 29 28 28 28 27 27 28 31 32 32 30 28 28 29 28 25 24 24 22 21 20 19 20 21 22 24 24 26 31 34 38 40 41 40 37 36 36 35 33 34 37 38 33 24 22 29 35 35 36 43 49 48 45 45 49 52 53 54 52 53 53
31 33 35 36 38 39 40 40 40 40 39 39 41 39 37 37 37 35 33 35 36 34 32 31 29 29 29 28 28 30 33 35 35 34 33 30 28 28 28 26 25 25 24 23 22 21 20 21 22 24 24 27 31 34 39 40 40 40 40 37 35 36 34 34 36 37 35 33 30 29 29 31 35 39 46 52 48 42 42 45 49 53 52 51 51
33 34 35 36 37 39 39 38 39 40 38 38 39 36 34 35 38 37 33 33 35 34 32 32 31 30 30 29 29 30 33 35 37 36 34 31 28 28 29 27 26 26 25 24 24 22 21 21 23 25 26 28 31 34 41 42 39 39 41 40 38 36 34 33 35 34 32 30 31 32 30 30 34 37 43 50 49 44 42 38 37 43 49 51 49
33 34 35 35 36 38 38 37 38 39 38 37 36 35 35 34 35 36 35 33 34 33 32 33 32 30 30 29 28 28 30 34 36 35 34 32 28 27 27 26 25 25 25 25 24 23 23 23 24 26 27 29 31 33 42 44 40 38 39 39 39 37 34 33 33 31 30 27 26 30 31 27 27 31 37 40 36 37 43 43 36 36 42 46 45
33 34 33 33 36 39 38 35 37 39 37 36 35 34 37 38 36 36 35 33 34 34 33 33 32 31 30 29 28 27 28 30 30 30 30 29 26 24 23 23 23 23 24 24 25 25 24 25 26 27 28 30 32 32 42 48 43 40 39 38 39 38 34 33 32 29 28 24 21 25 25 23 25 28 31 35 35 36 43 43 35 32 35 36 37
31 30 30 32 37 39 36 33 37 38 35 35 36 35 36 38 37 36 34 33 33 33 33 33 31 30 30 29 27 26 26 27 27 27 27 27 25 23 23 23 23 23 24 25 25 26 25 26 26 28 30 30 32 33 39 51 46 44 45 43 42 41 36 33 32 31 27 20 20 24 18 16 28 36 36 39 40 39 41 39 34 33 32 27 25
28 27 30 35 38 37 34 35 38 38 36 37 37 37 37 37 37 37 35 33 34 33 32 32 31 29 29 28 27 25 25 27 29 30 30 29 28 26 25 24 24 24 25 25 26 26 25 26 26 27 30 29 30 33 37 52 49 45 48 50 50 48 43 37 33 33 32 24 25 29 22 18 31 41 40 39 39 41 43 41 37 36 32 23 18
28 31 34 37 39 36 35 36 39 39 38 38 39 41 41 39 38 38 37 35 34 33 32 31 31 29 28 28 28 26 26 27 29 31 31 30 29 28 26 25 24 24 25 25 25 25 24 25 26 26 29 29 29 31 35 52 53 48 50 53 54 55 54 50 43 38 36 31 28 31 30 30 34 39 42 43 42 43 44 42 41 40 35 28 22
30 33 35 36 37 37 37 38 39 40 39 40 43 43 42 41 39 37 38 37 34 33 32 31 30 29 27 27 28 27 27 27 29 30 29 29 29 28 27 26 25 25 26 26 25 24 23 24 25 27 29 28 28 30 34 48 53 52 53 53 54 55 57 58 56 52 48 41 35 34 38 40 39 42 49 52 47 42 40 40 42 42 38 33 29
30 32 34 35 36 37 37 38 38 39 41 43 43 40 39 42 43 40 38 36 32 31 31 31 30 28 27 26 27 28 27 27 28 28 28 28 28 28 27 26 25 26 27 28 26 25 25 24 25 26 29 29 28 29 33 42 48 49 50 51 51 52 52 54 57 58 56 51 46 43 45 50 50 50 52 55 55 50 45 44 44 42 38 33 31
30 31 33 35 36 37 38 38 38 39 43 44 41 41 43 45 46 46 42 36 31 30 30 29 29 29 27 25 26 27 28 28 28 28 28 28 28 28 27 26 26 26 27 28 29 28 26 26 25 26 28 30 30 28 32 39 43 44 45 46 48 49 50 52 55 57 57 57 56 53 49 51 54 54 53 56 59 56 48 45 42 37 33 30 27
29 31 33 35 38 38 36 37 39 41 44 44 41 45 52 52 49 47 42 35 31 31 31 29 28 29 29 27 26 27 28 29 29 29 28 27 27 26 26 26 26 27 27 28 29 29 27 26 26 26 28 30 30 28 33 39 41 43 43 42 44 45 47 52 56 59 59 57 56 57 55 51 52 56 60 59 54 48 41 36 35 34 32 26 23
29 31 33 36 38 38 36 36 40 43 44 43 43 47 51 50 46 41 35 31 29 30 33 34 30 29 29 27 25 26 27 28 28 28 27 27 26 25 24 24 24 26 27 27 28 29 28 27 27 27 29 30 30 28 34 41 41 42 42 39 39 40 41 46 49 53 58 58 55 57 58 55 52 56 63 61 54 49 44 37 37 40 34 20 16
29 32 35 37 39 39 38 37 40 42 43 43 46 48 46 41 37 35 33 32 30 30 34 37 36 33 31 30 28 26 27 28 28 28 27 26 26 25 25 23 23 24 25 25 26 28 28 28 28 28 30 32 30 28 33 41 41 41 41 38 35 35 36 40 41 41 45 49 51 52 53 53 53 54 58 58 56 57 54 46 45 44 34 23 18
30 32 36 38 39 39 39 39 39 40 42 43 43 43 39 36 35 34 34 34 31 31 32 34 37 38 37 36 32 28 27 27 27 28 28 27 26 26 24 23 22 23 24 23 23 25 26 28 29 30 32 34 31 28 32 41 41 41 42 37 31 32 37 40 40 38 36 36 38 42 46 49 50 51 53 54 56 61 61 56 52 46 36 29 26
31 33 36 37 38 39 38 38 39 39 41 42 41 40 37 36 36 35 35 34 32 30 30 32 36 39 38 36 33 29 27 26 27 28 28 27 26 26 25 23 22 22 22 22 21 23 25 27 28 30 32 33 32 30 33 43 44 43 44 39 33 35 40 41 42 42 39 36 35 39 42 45 47 50 52 52 55 59 59 56 57 53 43 34 34
31 33 36 36 37 38 38 37 38 39 39 39 40 39 38 37 36 35 35 35 32 29 29 29 31 34 34 32 31 30 28 27 28 29 29 28 27 26 26 25 22 20 20 21 21 22 23 25 26 27 28 30 31 31 35 46 47 44 46 46 43 42 42 40 40 41 40 38 38 38 39 41 43 47 50 51 53 55 53 55 61 62 53 44 40
32 33 35 35 36 38 38 37 37 37 37 38 39 39 38 37 36 35 33 32 29 27 28 27 26 28 29 27 27 30 30 28 28 30 30 29 28 28 27 26 24 22 20 19 21 22 23 23 25 26 25 27 30 32 38 48 48 46 50 49 44 44 44 42 41 39 36 37 38 36 37 38 39 42 46 49 51 50 48 51 57 58 55 54 51
33 33 34 35 35 36 37 37 36 36 37 38 37 37 38 36 35 33 31 29 27 25 25 27 26 25 25 23 23 26 29 28 27 28 29 29 28 27 27 26 27 27 23 20 20 21 22 23 24 25 26 26 30 34 41 49 49 49 49 45 42 46 47 43 41 38 35 35 35 34 36 38 39 41 44 47 50 51 49 49 52 52 50 52 55
32 32 33 34 34 35 36 35 35 35 37 38 36 35 37 36 33 31 29 26 25 24 25 26 25 23 22 23 24 23 25 26 26 26 27 27 27 25 24 24 25 27 27 24 23 23 23 24 25 26 26 27 31 35 43 51 51 49 47 44 44 48 46 41 40 38 34 33 32 33 36 40 40 42 45 47 49 50 48 46 49 50 47 48 51
32 32 33 33 33 34 34 34 33 33 35 37 35 34 35 34 32 29 27 25 24 23 24 24 24 23 21 21 24 26 25 23 25 26 27 27 27 26 25 24 23 24 26 26 25 26 27 26 26 27 26 28 32 36 43 50 50 46 46 46 45 44 43 41 40 36 32 31 33 33 36 40 41 42 44 45 44 44 42 41 43 45 43 42 44
30 30 31 32 32 32 32 32 33 33 33 34 35 35 34 31 30 28 26 25 23 22 23 24 24 22 21 21 23 26 26 25 24 24 24 25 26 27 27 26 25 26 27 28 28 29 29 29 29 29 28 29 32 35 41 47 47 44 45 47 45 42 41 41 39 36 34 34 34 33 34 37 37 37 39 41 42 43 43 41 39 39 39 37 36
28 29 30 30 31 30 30 31 33 33 33 32 34 37 36 33 29 27 25 24 22 21 23 25 23 20 19 21 24 24 24 24 24 25 24 22 22 24 25 25 26 27 28 30 31 31 31 31 31 31 29 30 32 36 39 41 42 40 40 42 43 42 43 44 45 43 40 37 34 32 32 33 33 34 38 41 42 43 44 43 39 38 38 35 32
26 27 27 28 28 29 29 30 31 32 33 31 31 33 35 34 31 27 25 25 25 24 24 24 23 21 21 22 23 22 22 23 24 27 31 29 26 24 22 21 22 23 26 27 28 29 29 28 28 28 28 28 28 31 33 33 35 35 36 39 40 41 44 46 45 42 38 35 33 30 31 33 34 37 39 39 39 40 42 41 39 38 38 35 29
24 25 25 26 27 28 29 30 31 31 32 31 31 32 31 30 29 28 29 30 29 29 28 26 25 25 23 23 21 18 18 23 30 35 35 33 31 27 23 21 20 20 23 25 25 24 23 22 21 21 22 22 21 22 23 25 28 30 34 37 37 37 39 39 37 34 34 35 34 34 35 36 35 36 37 35 35 39 41 40 38 36 37 35 30
23 23 24 25 26 27 28 29 30 31 31 31 33 35 35 32 28 27 29 33 35 34 31 30 31 30 26 25 25 22 22 29 37 40 38 35 32 28 25 26 25 22 22 24 23 21 19 17 17 18 18 17 15 16 18 22 25 27 31 35 36 35 36 37 36 35 36 37 38 37 37 36 34 34 35 34 34 36 40 41 39 37 36 34 29
21 22 23 24 25 26 27 27 28 29 30 30 30 32 36 39 40 37 33 33 37 39 37 35 35 34 32 31 31 30 32 37 41 41 40 39 33 26 22 25 26 25 25 24 22 19 15 12 11 16 18 16 14 16 19 23 25 27 29 32 34 36 36 36 36 37 37 37 38 38 38 38 37 36 36 35 34 35 37 38 37 37 37 36 32
19 21 23 23 24 25 25 26 27 27 29 31 31 30 30 34 40 47 47 41 37 38 39 40 38 37 39 38 36 35 37 40 42 43 43 41 33 22 18 21 22 23 24 23 18 15 15 12 9 12 15 14 15 19 22 23 26 28 28 27 29 33 36 37 38 39 37 36 36 36 37 37 37 36 36 35 34 34 35 36 35 35 34 33 32
17 19 21 22 23 25 25 25 26 26 27 28 29 31 30 26 25 34 45 51 53 51 48 45 41 39 41 42 41 40 40 42 44 45 44 44 36 19 10 14 17 21 25 23 16 11 13 13 11 14 17 16 17 21 23 24 26 28 28 28 29 31 34 36 38 38 36 35 35 35 35 35 35 34 35 36 35 34 35 35 35 34 31 30 30
16 18 19 20 22 24 24 25 25 24 25 26 26 27 30 28 23 23 28 35 42 49 53 52 46 41 42 46 46 45 44 44 46 46 45 46 40 28 19 13 9 5 8 11 11 11 14 14 13 15 17 18 19 21 22 24 26 28 28 29 30 31 32 33 34 34 33 32 32 33 34 36 36 34 34 34 34 33 33 34 34 33 32 30 29
17 18 20 20 21 23 23 24 25 23 24 25 25 26 28 28 24 23 23 22 21 26 38 48 48 41 40 45 47 47 46 45 47 47 47 47 45 42 39 30 23 20 19 16 11 4 6 10 14 17 18 18 19 22 23 24 26 27 28 28 29 30 32 33 35 35 34 32 31 32 34 36 37 37 36 34 33 31 31 33 34 33 33 31 28
17 18 20 21 22 23 23 24 24 23 23 23 24 26 29 26 23 22 24 23 20 20 28 41 46 41 39 44 50 51 47 43 44 47 48 47 47 47 39 24 16 16 20 23 22 19 15 12 3 9 17 19 20 21 23 25 26 27 29 29 29 30 32 33 34 34 34 33 32 33 34 35 36 37 35 34 35 34 33 33 34 33 33 32 30
16 17 19 20 21 22 23 24 23 21 22 23 23 25 28 27 25 24 23 22 22 23 28 37 43 41 39 44 52 52 45 42 48 56 56 53 51 48 38 25 19 18 19 20 21 21 24 28 26 14 1 10 17 21 22 24 25 27 29 30 30 32 33 35 35 35 34 33 32 33 34 34 36 37 36 33 33 33 32 33 34 33 34 35 32
15 16 16 17 18 20 22 23 23 22 22 23 24 24 26 29 29 27 24 24 25 24 25 31 38 39 37 39 44 47 48 53 61 63 59 55 50 44 38 33 28 25 25 26 25 24 27 33 36 32 24 12 4 13 19 22 24 26 28 30 30 32 34 34 35 35 35 33 32 33 34 34 34 36 36 33 32 31 31 32 32 31 31 33 32
15 16 15 14 16 18 20 21 22 23 23 23 24 23 24 28 30 28 26 27 27 26 26 31 36 38 36 37 42 46 49 52 50 46 46 50 48 43 40 38 35 33 36 37 33 29 30 34 37 38 37 31 19 9 6 15 22 25 28 28 28 29 30 31 31 33 33 32 32 33 33 33 34 36 36 34 32 32 32 32 32 32 31 32 34
14 15 16 15 16 17 19 20 21 22 22 22 23 23 23 24 26 27 27 26 24 24 28 34 37 36 35 37 41 42 41 41 40 38 39 44 48 49 48 44 39 39 42 45 41 33 29 31 34 38 41 39 32 25 16 6 10 18 24 26 26 26 28 30 31 32 32 32 32 33 33 34 35 35 34 33 33 34 33 32 33 34 33 33 34
13 14 15 16 16 17 18 19 20 21 21 20 21 22 23 23 24 25 28 28 24 23 27 34 39 39 38 37 39 42 41 41 43 44 42 42 45 48 48 45 43 41 42 46 45 37 31 31 32 34 37 40 39 34 30 23 14 6 10 16 20 22 25 27 29 30 31 32 33 33 34 35 35 34 34 34 34 33 32 31 31 31 31 31 31
13 13 14 15 16 17 18 18 19 19 20 21 21 21 22 23 23 24 27 30 29 27 29 35 40 42 40 37 38 44 47 45 45 48 49 48 48 47 43 42 42 40 38 42 44 39 33 32 33 34 35 38 39 38 35 32 28 22 13 6 7 12 16 20 24 27 28 29 30 32 33 35 36 36 37 36 34 31 30 30 29 29 29 28 29
12 12 13 14 15 16 16 16 18 19 19 20 20 20 21 22 23 23 24 28 31 31 32 35 38 41 42 41 41 45 50 50 49 49 50 50 51 50 44 41 41 39 37 39 41 39 35 33 34 35 36 36 36 37 35 33 32 30 26 20 14 9 6 9 14 19 22 24 25 26 28 30 32 33 32 33 33 32 31 31 31 30 30 30 29
11 12 13 13 14 15 15 15 17 18 18 18 19 19 20 21 23 23 23 26 31 33 33 33 35 37 41 44 45 46 49 49 48 48 48 49 51 51 47 45 44 42 39 40 41 40 38 36 35 36 37 38 38 37 36 35 34 33 31 28 24 18 13 7 4 10 16 20 21 22 23 25 27 27 26 28 29 29 28 29 29 29 29 29 28
10 11 13 14 14 15 15 16 17 17 18 19 20 21 21 21 22 23 23 25 30 33 33 33 35 37 39 42 43 44 46 46 46 47 48 48 49 49 49 50 49 44 40 40 42 41 40 39 38 38 39 39 39 39 38 38 38 36 33 32 29 24 19 13 6 4 11 18 21 22 23 23 24 24 24 25 27 27 26 27 27 27 26 26 26
9 10 12 13 14 15 15 16 17 17 18 19 19 20 21 21 22 23 22 23 26 30 33 34 36 36 37 39 39 41 42 43 44 46 46 46 47 48 49 50 51 48 43 42 43 43 42 41 40 40 40 39 40 40 39 40 40 39 37 35 32 28 23 18 12 7 8 14 20 24 24 23 23 24 24 24 25 25 24 25 26 26 26 26 26
8 9 10 12 13 14 15 16 16 17 18 18 18 19 20 20 21 22 23 23 25 27 30 32 34 34 35 36 37 38 40 41 42 44 44 44 45 47 48 49 51 51 48 46 46 46 45 43 41 41 41 41 42 42 42 42 42 41 40 39 36 32 27 23 19 15 10 9 14 20 23 23 23 24 25 25 25 25 24 23 24 25 25 25 24
6 7 9 10 11 13 14 16 17 17 18 18 18 17 18 19 20 21 22 23 24 26 27 29 32 33 34 34 35 37 38 40 41 42 42 43 44 45 46 48 49 49 49 48 48 46 44 43 43 43 43 43 43 44 44 44 44 44 42 41 38 34 30 28 26 22 18 15 13 14 17 18 18 19 21 23 23 24 25 24 24 25 25 24 24
5 6 7 8 10 12 13 14 15 16 16 17 17 17 17 18 19 20 21 22 22 24 25 27 29 31 32 33 34 35 37 38 39 40 41 42 43 43 44 46 47 48 48 47 46 44 44 44 44 44 44 44 44 44 44 45 45 44 43 42 39 35 33 31 29 27 24 22 21 19 18 18 17 16 15 16 18 19 20 20 21 23 23 22 23
4 5 6 7 8 10 11 11 13 14 15 16 17 17 17 18 18 19 20 21 22 23 24 25 26 28 30 31 32 33 34 36 37 38 38 39 40 41 42 43 44 46 47 45 43 43 43 43 44 44 45 45 45 45 45 45 44 44 43 41 40 37 35 33 32 30 29 28 27 25 24 24 23 21 19 18 17 17 17 16 16 17 18 17 18
3 4 5 6 7 9 10 11 12 14 15 16 17 17 17 18 18 18 18 19 20 21 23 23 24 26 27 28 29 30 32 33 33 34 36 37 37 39 40 40 41 43 44 44 43 42 42 43 43 43 44 45 46 46 46 45 44 43 43 42 42 40 38 36 35 33 31 31 30 30 29 29 29 27 25 23 22 21 20 19 18 18 18 17 17
Wind_Direction
319 318 317 316 315 315 316 315 314 314 313 312 309 308 307 304 302 302 301 301 301 299 297 295 292 288 286 286 286 285 285 285 287 290 293 291 286 279 269 263 263 264 268 273 275 277 277 274 270 260 257 261 238 199 188 189 185 182 179 178 182 182 177 171 159 147 158 166 167 170 172 172 172 174 174 174 176 177 178 179 179 179 179 181 183
320 318 317 316 315 315 315 315 315 314 314 312 310 309 309 305 303 303 303 302 302 299 297 295 292 287 284 283 283 284 282 283 285 287 291 290 285 278 265 256 258 262 266 272 274 277 278 275 274 265 254 258 244 204 187 188 188 185 183 181 181 183 180 171 157 147 146 157 162 167 171 172 172 174 175 174 175 176 177 177 178 179 180 181 182
319 318 316 315 315 316 315 315 316 315 314 312 310 310 308 306 305 304 303 304 303 300 298 297 292 287 284 281 280 281 280 280 281 283 286 289 289 282 265 252 253 259 263 271 275 277 279 277 277 272 257 255 248 213 188 186 189 188 187 186 184 183 180 171 161 156 150 153 161 164 169 173 173 174 176 176 174 175 176 176 178 180 180 182 183
319 319 317 316 316 316 316 316 316 315 314 312 311 311 308 305 306 306 304 303 304 302 297 297 294 287 283 280 277 275 276 276 278 281 283 286 290 289 276 258 255 260 264 271 277 279 279 277 278 278 268 259 248 219 192 186 188 189 189 188 186 182 177 172 165 160 153 152 163 167 170 173 174 174 174 173 174 175 176 178 179 179 180 183 185
320 319 317 316 317 317 316 316 316 315 314 313 312 311 310 307 305 309 309 303 302 303 298 293 293 290 284 282 282 280 281 281 281 281 282 283 286 289 287 275 265 264 266 271 277 280 280 278 278 277 274 266 248 218 194 187 187 187 188 188 184 180 174 170 166 162 158 155 157 166 169 169 170 172 172 170 169 171 175 178 179 180 181 184 186
321 319 318 317 317 317 317 317 317 316 314 314 315 313 312 311 307 308 312 308 301 300 299 292 289 288 285 283 284 284 282 281 279 278 279 280 281 283 287 285 276 267 265 270 274 278 280 279 279 275 271 269 252 218 194 189 187 184 185 185 182 177 171 166 165 163 161 158 155 158 166 166 164 167 172 171 169 168 170 173 178 181 183 184 186
321 319 318 316 314 315 317 316 316 316 314 314 315 313 311 311 309 307 308 308 303 298 296 293 287 285 284 281 280 280 278 276 275 274 274 275 276 278 281 283 278 268 263 267 270 273 277 278 281 276 267 268 257 221 194 187 188 186 184 183 178 173 169 164 163 161 158 157 157 158 164 167 165 165 171 173 172 170 168 166 172 180 184 186 187
319 318 316 314 312 314 317 315 314 315 315 313 312 313 312 310 310 310 307 303 300 297 296 294 289 285 283 281 280 279 276 274 272 270 270 269 269 271 273 274 271 264 261 264 266 268 274 277 280 279 269 269 264 230 197 185 186 186 184 181 175 170 168 163 160 160 157 157 160 160 161 163 163 162 165 167 168 171 173 172 173 180 182 184 187
318 316 313 311 312 315 315 313 316 318 317 316 312 312 317 315 310 308 306 301 297 294 293 293 289 287 284 281 281 278 274 272 270 267 265 265 264 262 263 265 266 265 262 264 266 266 271 276 280 283 276 272 273 247 205 187 184 184 181 179 174 169 166 164 161 159 158 158 159 159 158 158 159 157 161 169 172 173 175 174 174 178 179 179 184
317 313 310 310 313 316 314 312 317 319 317 317 314 310 314 316 312 306 301 300 299 295 292 291 289 286 284 281 279 276 273 270 269 267 263 263 263 259 259 261 262 265 263 262 266 266 269 275 279 287 284 274 277 264 216 190 186 187 182 179 176 170 166 165 164 162 160 160 160 160 160 163 167 167 170 176 175 171 172 171 169 173 174 172 181
315 311 310 313 315 315 315 315 318 319 317 317 317 314 312 313 313 309 301 297 297 296 292 289 287 285 284 282 278 273 270 267 267 267 265 264 263 259 258 259 258 262 262 260 263 265 269 276 279 288 289 277 280 275 226 194 189 190 185 182 180 176 171 168 166 165 164 163 165 168 168 171 175 175 172 172 172 171 173 173 170 170 172 171 177
316 314 314 317 318 317 317 319 320 319 319 318 317 317 315 312 309 307 304 300 296 293 291 286 285 284 282 280 278 272 269 266 265 266 265 263 262 259 258 258 256 259 261 260 261 262 266 275 278 285 288 280 283 278 230 197 191 192 189 186 184 182 179 175 172 169 167 166 169 174 176 174 176 176 172 171 173 174 174 175 174 175 178 178 176
318 318 318 320 321 321 321 322 321 319 319 319 318 316 315 313 307 301 300 301 297 291 289 285 282 283 279 276 275 272 268 267 265 266 265 263 262 260 258 257 255 256 259 260 260 260 263 271 275 281 285 283 285 274 231 198 190 191 190 187 185 184 183 181 178 176 174 171 172 179 180 175 175 179 178 174 172 172 174 177 178 179 180 181 179
320 319 321 322 322 322 323 322 320 318 317 319 317 314 312 311 309 303 298 295 292 288 288 284 281 280 277 273 274 272 268 266 265 266 265 262 261 260 259 258 256 255 256 258 258 259 260 264 269 276 282 285 285 268 230 199 188 187 186 184 185 185 184 183 181 179 178 176 178 182 183 180 179 181 180 175 174 175 178 180 180 180 179 179 178
321 321 322 323 323 324 324 322 320 319 319 318 315 312 313 312 310 308 303 294 289 289 288 284 280 279 276 270 271 272 268 265 265 266 266 262 259 258 259 259 259 258 256 255 255 255 256 257 260 269 276 279 279 262 227 200 187 183 182 182 183 185 186 185 183 181 180 181 182 183 184 184 181 179 179 178 179 180 181 180 177 172 167 165 167
323 325 324 324 325 325 325 323 321 320 321 320 316 314 316 315 313 312 307 295 291 293 292 286 279 279 278 272 267 269 270 268 266 266 266 263 257 255 256 256 255 255 255 253 251 251 251 252 255 262 268 271 275 259 223 199 185 180 181 182 183 185 188 189 187 185 184 185 186 184 185 186 183 180 181 181 179 177 173 170 167 161 158 156 159
325 326 325 324 325 325 324 322 321 321 321 320 318 317 317 315 314 315 309 298 293 294 297 295 288 281 277 271 265 265 269 270 269 268 266 261 255 253 254 254 251 250 250 249 246 245 247 249 250 258 263 265 271 259 222 197 184 180 180 180 181 185 189 191 190 188 187 187 187 186 186 186 185 184 183 182 178 173 166 163 168 168 165 162 162
327 327 325 324 324 324 324 323 321 321 321 320 319 319 319 317 316 316 312 306 298 293 296 298 294 287 279 273 267 263 266 269 269 268 265 258 251 248 248 248 246 247 246 244 241 239 243 248 249 253 259 259 265 260 224 197 184 179 177 176 179 184 188 189 189 190 190 188 188 186 185 185 186 184 183 181 179 177 175 174 175 173 171 173 170
328 326 323 323 324 324 325 325 324 322 321 321 321 321 320 319 318 316 313 308 302 295 294 295 294 291 285 280 274 264 262 266 267 265 263 256 249 245 244 242 239 240 242 240 240 239 242 249 250 251 256 257 262 260 226 199 185 179 176 174 177 184 185 184 184 185 187 187 184 182 181 183 183 181 181 180 180 182 184 182 177 175 176 174 166
326 324 323 323 324 325 326 326 325 324 323 322 323 323 321 319 320 319 315 309 304 299 294 293 294 293 287 281 275 264 258 260 263 262 257 252 248 244 242 241 238 237 238 239 242 243 244 249 250 250 255 257 259 256 227 202 188 180 176 176 182 185 182 179 180 180 179 179 177 176 176 178 179 178 179 181 182 184 187 185 182 182 181 172 169
325 324 324 325 326 327 328 327 326 326 325 324 324 324 324 323 321 321 317 310 305 302 301 300 300 298 292 284 276 269 263 258 258 260 255 248 246 243 240 242 241 238 237 236 239 243 243 247 250 251 255 255 255 251 226 203 192 183 180 184 186 182 176 174 175 175 173 171 170 170 172 173 175 176 177 180 183 184 185 186 187 189 186 178 176
327 326 326 328 328 329 330 330 330 329 328 328 327 326 327 327 325 324 321 313 309 311 315 316 313 307 301 293 282 277 274 264 254 255 254 249 246 244 240 240 240 239 237 234 235 239 242 247 250 253 256 254 253 246 222 203 194 188 187 188 183 176 172 171 170 169 167 166 165 166 169 170 173 177 178 181 184 185 185 187 188 189 189 188 187
329 329 329 330 330 331 332 333 334 334 332 332 330 329 330 330 329 329 326 320 319 321 322 324 322 316 312 309 299 289 283 272 256 250 251 249 248 248 246 242 239 236 234 234 235 239 243 247 251 255 258 255 251 241 218 202 196 193 190 185 179 175 172 168 166 166 165 164 164 166 170 173 175 177 180 182 184 185 186 187 188 189 190 192 196
332 332 332 332 332 333 334 335 337 338 337 335 334 334 333 332 331 332 329 326 327 326 324 326 327 322 319 322 323 313 296 278 261 253 252 251 250 248 247 246 242 234 232 234 238 241 243 246 250 254 257 256 250 235 214 203 199 195 188 183 179 174 168 164 165 167 165 165 168 170 175 178 178 179 181 182 183 184 185 186 188 189 189 192 196
335 334 334 333 334 335 335 336 339 342 342 340 338 338 337 334 333 334 332 330 330 327 326 330 330 326 323 326 328 327 318 298 275 262 257 257 258 255 250 248 245 238 235 235 238 241 244 247 251 254 257 257 248 228 210 203 201 195 187 182 177 171 166 166 167 167 167 172 176 178 180 182 182 182 181 180 180 181 182 185 188 190 190 193 196
336 335 334 334 336 337 338 339 342 344 347 346 342 341 341 336 333 334 334 333 330 325 328 334 331 325 327 330 328 327 327 322 308 289 272 262 259 258 254 251 246 243 242 241 242 244 245 246 249 250 253 255 243 221 205 201 200 194 186 180 175 172 171 169 168 170 176 180 181 182 182 181 181 180 177 176 178 180 182 184 186 189 191 192 192
336 335 335 337 338 340 342 342 342 345 348 349 346 345 344 340 336 334 333 332 328 327 335 340 333 325 328 333 331 327 325 327 329 325 315 297 276 262 255 251 247 242 240 240 240 242 242 243 245 245 249 252 238 216 204 199 194 190 184 178 176 177 177 175 176 179 182 183 181 180 177 175 174 174 175 177 180 183 184 184 184 187 190 189 187
338 336 337 340 341 343 344 343 344 345 345 347 347 346 344 341 338 337 337 335 333 337 342 340 332 330 336 336 331 328 328 329 331 329 324 316 303 283 261 249 244 238 235 235 235 236 236 238 241 242 246 247 230 209 199 193 188 184 181 179 180 182 181 181 182 183 182 179 175 170 168 170 172 174 177 180 182 184 185 184 184 185 184 184 186
341 339 341 343 344 346 346 346 347 345 343 344 346 345 345 342 337 339 344 346 346 348 349 345 338 338 342 339 335 332 328 328 329 327 322 317 310 294 269 250 242 238 237 235 230 225 224 226 229 233 236 231 213 197 188 182 180 182 182 181 183 183 183 183 183 181 178 175 171 169 170 173 174 175 177 180 182 184 184 184 185 183 181 185 190
342 342 345 347 347 347 347 347 349 347 345 345 344 344 347 349 349 349 350 353 358 0 357 353 351 352 353 348 343 339 334 332 333 332 329 325 316 300 274 254 247 247 247 239 223 212 209 212 215 219 220 214 199 185 176 171 173 180 183 184 183 182 183 185 184 180 177 175 174 174 172 172 174 175 178 180 181 183 185 185 184 182 182 187 192
341 342 347 348 347 348 348 348 349 349 348 348 346 344 345 349 356 2 1 359 3 5 3 1 0 1 2 358 351 348 346 345 344 342 339 334 325 307 278 255 246 247 247 235 217 205 203 205 210 211 209 205 193 181 175 174 176 180 183 185 184 182 183 185 184 181 179 178 178 176 174 174 176 177 179 180 178 179 183 184 185 185 186 189 191
343 344 348 348 348 350 350 349 349 350 350 350 350 350 346 344 352 1 4 5 8 9 7 5 4 5 6 5 2 359 354 353 353 351 347 343 337 317 279 252 243 245 242 229 212 205 204 201 203 203 201 198 190 182 179 179 181 182 182 183 185 185 184 185 184 182 182 181 179 177 177 178 178 177 178 178 176 177 180 183 186 188 188 190 193
350 350 351 350 351 352 351 351 350 349 350 351 351 353 353 347 343 349 356 3 11 15 13 8 5 6 7 6 6 6 2 0 0 359 356 356 356 349 292 252 244 241 232 219 206 203 204 202 204 201 197 196 189 183 182 183 183 183 182 183 185 186 185 185 184 183 185 184 180 178 177 177 177 176 177 179 179 179 181 184 186 187 187 190 194
2 2 360 356 355 354 353 352 350 348 350 353 352 353 353 350 342 337 341 352 4 10 10 7 5 6 7 8 8 8 7 7 6 5 4 4 11 29 51 48 23 326 244 218 208 207 203 200 202 201 198 196 190 183 182 183 182 182 184 184 184 183 181 181 183 185 186 184 181 179 177 176 176 176 177 180 182 182 183 185 185 186 188 190 191
12 12 10 6 0 357 356 354 351 349 350 352 353 355 352 345 340 340 338 336 341 350 357 360 2 4 8 11 10 9 10 10 10 11 12 11 18 38 50 44 30 23 21 17 5 322 224 206 205 201 197 195 191 186 183 182 182 182 183 183 181 179 177 179 184 187 186 183 182 181 179 177 178 179 179 180 182 183 185 187 188 189 190 188 187
17 16 15 10 3 359 359 358 355 352 351 350 353 357 356 349 342 342 342 339 335 337 346 354 358 2 9 13 13 11 11 11 12 17 18 16 23 37 42 30 13 16 19 17 13 11 12 12 343 207 197 194 192 187 184 183 183 183 182 181 179 178 179 183 185 186 185 185 184 182 180 179 181 181 181 183 186 187 187 188 189 191 191 188 187
22 20 16 9 3 3 3 3 0 356 353 353 354 357 359 358 354 351 348 344 343 344 347 352 356 359 6 12 13 10 7 11 18 24 23 20 24 32 33 24 19 19 14 12 13 15 18 20 20 19 39 192 190 188 185 182 181 181 182 182 181 181 183 186 186 185 185 186 185 182 182 183 183 183 183 186 189 190 190 188 189 192 191 190 188
30 29 21 8 4 6 5 4 3 0 357 358 358 357 359 1 360 357 353 351 350 348 347 351 356 358 1 7 8 6 9 18 23 24 21 19 21 25 24 22 23 21 15 14 16 18 21 23 24 25 26 33 143 181 184 182 179 178 180 182 184 186 186 186 186 186 187 187 186 185 185 185 185 186 187 188 189 191 191 191 190 190 190 190 191
37 37 31 19 12 12 9 5 3 2 360 359 359 358 359 1 2 1 358 356 356 356 355 357 359 360 1 5 7 8 14 20 19 13 11 14 18 20 20 20 21 19 16 15 16 20 22 22 23 27 29 30 34 51 148 178 181 181 181 183 185 186 186 185 186 188 189 188 186 186 186 186 187 188 190 191 191 191 191 191 191 190 189 192 195
39 38 35 29 23 19 15 11 7 4 1 359 358 359 359 0 1 2 2 359 356 356 360 3 2 360 1 8 12 13 16 18 15 11 7 8 12 16 19 19 18 17 16 15 16 19 22 22 23 26 28 29 32 35 41 81 168 183 185 185 185 186 187 187 188 189 190 189 188 187 187 188 188 188 191 194 194 193 192 192 193 193 193 195 196
40 39 37 34 30 25 22 18 13 8 4 1 359 359 360 0 1 3 6 5 360 355 358 3 5 5 5 9 13 18 19 19 17 17 14 9 9 13 16 16 17 18 18 17 16 18 21 23 25 25 26 28 30 32 36 41 51 96 172 184 188 189 189 190 191 191 191 191 190 189 190 190 188 188 192 195 195 194 193 193 193 194 196 197 196
41 38 37 36 33 29 24 20 16 13 9 6 4 1 360 360 0 2 6 9 8 4 2 4 7 10 10 9 12 18 22 22 20 19 18 16 14 14 14 15 17 19 19 18 19 19 22 25 26 27 28 28 28 29 31 35 39 44 55 92 158 180 188 192 194 195 194 194 193 193 192 191 191 192 193 194 192 191 191 192 192 193 195 196 196
43 38 36 35 34 31 26 21 19 18 14 8 5 3 2 2 2 3 5 8 10 10 8 6 7 10 12 13 16 20 22 23 21 20 19 18 17 17 16 16 17 19 20 21 22 23 26 27 28 30 31 30 30 31 30 30 34 38 41 48 61 85 132 173 189 195 197 198 198 197 195 194 194 194 193 192 191 190 190 191 191 191 192 193 193
41 38 35 34 32 30 28 26 25 22 17 12 9 8 7 5 4 4 5 8 11 12 10 9 8 9 12 16 19 20 21 22 21 20 19 18 18 18 18 17 18 20 21 22 24 26 28 28 29 30 32 32 33 33 32 32 34 35 35 38 43 48 54 68 137 186 194 197 198 197 196 196 196 195 193 191 191 191 191 191 192 192 193 191 190
38 34 31 29 28 26 26 28 28 25 22 19 14 12 11 9 6 5 5 6 10 12 12 11 12 12 13 16 17 18 19 20 20 21 21 19 18 19 20 20 22 23 22 23 25 28 29 28 28 29 31 31 32 32 33 33 34 35 34 34 35 36 37 39 51 156 187 192 193 192 191 192 193 193 192 192 192 192 193 194 194 194 193 192 192
31 31 29 26 23 21 21 25 27 27 25 22 17 12 11 9 7 7 6 5 7 9 10 12 13 13 14 15 16 16 18 19 20 21 21 20 20 21 22 24 26 28 27 26 27 29 30 30 29 29 30 30 31 32 32 32 34 34 34 34 34 36 39 44 56 90 158 184 189 189 187 187 188 190 191 190 191 192 194 194 194 194 194 195 196
24 26 26 23 20 17 17 21 25 25 25 24 19 14 12 9 8 8 7 6 6 7 9 11 12 12 13 15 16 16 18 20 21 21 20 20 22 23 24 27 30 31 31 30 31 31 31 30 30 30 31 30 31 31 31 32 32 33 32 33 35 38 44 52 60 73 99 147 176 184 185 183 183 186 188 187 187 189 191 191 192 193 194 195 195
21 20 19 19 18 15 14 17 20 21 22 21 19 16 13 11 9 9 8 7 6 6 8 10 12 12 13 15 16 18 20 21 22 21 21 22 24 26 27 29 30 31 32 33 33 32 31 31 31 31 31 31 31 32 32 32 32 32 32 32 35 41 49 55 59 66 79 98 123 148 162 166 168 173 179 182 184 186 188 190 192 192 192 193 193
14 14 12 14 14 13 12 14 16 17 19 18 16 16 14 12 10 9 8 8 8 7 7 9 11 12 13 15 16 19 21 22 22 22 22 24 26 27 29 31 32 32 33 33 33 32 32 33 33 33 33 32 33 33 33 33 33 32 32 33 37 44 51 56 59 64 73 82 91 101 111 119 124 131 142 156 166 171 175 179 182 184 185 186 186
359 2 6 9 9 8 8 10 13 15 17 16 14 13 12 11 10 9 8 7 8 8 8 9 10 12 14 15 15 17 19 21 21 21 22 24 26 28 29 31 33 34 35 35 34 34 34 35 35 35 34 34 34 34 34 34 34 34 35 38 42 46 51 55 59 64 69 74 79 85 89 92 94 95 99 110 121 129 136 141 148 156 162 164 166
332 343 354 1 3 2 2 4 9 13 14 13 12 11 9 8 8 8 7 6 6 6 7 9 10 12 15 16 16 17 19 20 21 22 24 26 27 28 30 31 33 34 36 37 37 36 36 36 36 36 35 35 35 36 35 35 35 37 41 44 47 49 52 55 58 62 67 71 75 78 80 81 81 79 80 85 92 98 103 109 114 120 124 126 132